TimeCDT,TemperatureF,Dew PointF,Humidity,Sea Level PressureIn,VisibilityMPH,Wind Direction,Wind SpeedMPH,Gust SpeedMPH,PrecipitationIn,Events,Conditions,WindDirDegrees,DateUTC
12:15 AM,15.8,12.2,86,30.24,10.0,West,4.6,-,N/A,,Unknown,260,2013-04-02 05:15:00
12:35 AM,15.8,12.2,86,30.24,10.0,West,4.6,-,N/A,,Unknown,270,2013-04-02 05:35:00
12:55 AM,15.8,12.2,86,30.24,10.0,West,3.5,-,N/A,,Unknown,270,2013-04-02 05:55:00
1:15 AM,15.8,12.2,86,30.25,10.0,West,4.6,-,N/A,,Unknown,270,2013-04-02 06:15:00
1:35 AM,15.8,12.2,86,30.25,10.0,Calm,Calm,-,N/A,,Unknown,0,2013-04-02 06:35:00
1:55 AM,14.0,12.2,93,30.25,10.0,NW,3.5,-,N/A,,Unknown,310,2013-04-02 06:55:00
2:15 AM,15.8,12.2,86,30.25,10.0,Calm,Calm,-,N/A,,Unknown,0,2013-04-02 07:15:00
2:35 AM,14.0,12.2,93,30.25,10.0,West,5.8,-,N/A,,Unknown,260,2013-04-02 07:35:00
2:55 AM,14.0,12.2,93,30.25,10.0,West,3.5,-,N/A,,Unknown,260,2013-04-02 07:55:00
3:15 AM,14.0,12.2,93,30.24,10.0,Calm,Calm,-,N/A,,Unknown,0,2013-04-02 08:15:00
3:35 AM,14.0,10.4,86,30.24,10.0,West,4.6,-,N/A,,Unknown,270,2013-04-02 08:35:00
3:55 AM,14.0,10.4,86,30.24,10.0,West,3.5,-,N/A,,Unknown,280,2013-04-02 08:55:00
4:15 AM,12.2,10.4,92,30.24,10.0,West,5.8,-,N/A,,Unknown,270,2013-04-02 09:15:00
4:55 AM,12.2,10.4,92,30.25,10.0,West,4.6,-,N/A,,Unknown,260,2013-04-02 09:55:00
5:15 AM,12.2,10.4,92,30.25,10.0,West,3.5,-,N/A,,Unknown,270,2013-04-02 10:15:00
5:35 AM,10.4,8.6,92,30.25,10.0,West,5.8,-,N/A,,Unknown,280,2013-04-02 10:35:00
5:55 AM,10.4,8.6,92,30.26,10.0,Calm,Calm,-,N/A,,Unknown,0,2013-04-02 10:55:00
6:15 AM,10.4,8.6,92,30.26,10.0,WSW,3.5,-,N/A,,Unknown,250,2013-04-02 11:15:00
6:35 AM,10.4,8.6,92,30.27,10.0,West,4.6,-,N/A,,Unknown,280,2013-04-02 11:35:00
6:55 AM,10.4,8.6,92,30.28,10.0,WNW,4.6,-,N/A,,Unknown,290,2013-04-02 11:55:00
7:15 AM,10.4,8.6,92,30.29,10.0,West,3.5,-,N/A,,Unknown,280,2013-04-02 12:15:00
7:35 AM,10.4,8.6,92,30.29,10.0,West,3.5,-,N/A,,Unknown,280,2013-04-02 12:35:00
7:55 AM,12.2,10.4,92,30.30,10.0,West,3.5,-,N/A,,Unknown,280,2013-04-02 12:55:00
8:15 AM,14.0,10.4,86,30.30,10.0,WSW,3.5,-,N/A,,Unknown,250,2013-04-02 13:15:00
8:35 AM,14.0,12.2,93,30.30,10.0,West,5.8,-,N/A,,Unknown,270,2013-04-02 13:35:00
8:55 AM,17.6,14.0,86,30.31,10.0,West,3.5,-,N/A,,Unknown,280,2013-04-02 13:55:00
9:35 AM,19.4,14.0,80,30.31,10.0,West,3.5,-,N/A,,Unknown,270,2013-04-02 14:35:00
9:55 AM,21.2,15.8,80,30.31,10.0,West,3.5,-,N/A,,Unknown,270,2013-04-02 14:55:00
10:15 AM,23.0,15.8,74,30.31,10.0,West,4.6,-,N/A,,Unknown,280,2013-04-02 15:15:00
10:35 AM,23.0,15.8,74,30.32,10.0,West,4.6,-,N/A,,Unknown,260,2013-04-02 15:35:00
10:55 AM,26.6,14.0,59,30.32,10.0,NW,5.8,-,N/A,,Unknown,320,2013-04-02 15:55:00
11:15 AM,26.6,15.8,64,30.32,10.0,NNW,5.8,-,N/A,,Unknown,340,2013-04-02 16:15:00
11:35 AM,28.4,12.2,51,30.32,10.0,NW,6.9,-,N/A,,Unknown,310,2013-04-02 16:35:00
11:55 AM,28.4,15.8,59,30.33,10.0,West,6.9,-,N/A,,Unknown,280,2013-04-02 16:55:00
12:15 PM,28.4,12.2,51,30.32,10.0,NW,9.2,-,N/A,,Unknown,320,2013-04-02 17:15:00
12:35 PM,28.4,12.2,51,30.32,10.0,NW,9.2,-,N/A,,Unknown,320,2013-04-02 17:35:00
12:55 PM,-9999,-9999,N/A,-9999,-9999.0,North,-9999.0,-,N/A,,Unknown,0,2013-04-02 17:55:00
1:15 PM,30.2,12.2,47,30.32,10.0,NNW,8.1,-,0.04,,Clear,330,2013-04-02 18:15:00
1:35 PM,30.2,12.2,47,30.32,10.0,NW,8.1,-,0.04,,Clear,320,2013-04-02 18:35:00
1:55 PM,30.2,12.2,47,30.32,10.0,NNW,9.2,16.1,0.04,,Clear,330,2013-04-02 18:55:00
2:15 PM,30.2,12.2,47,30.31,10.0,WNW,5.8,-,N/A,,Clear,300,2013-04-02 19:15:00
2:35 PM,30.2,12.2,47,30.31,10.0,NW,10.4,-,N/A,,Clear,320,2013-04-02 19:35:00
2:55 PM,30.2,12.2,47,30.31,10.0,NW,9.2,-,N/A,,Clear,310,2013-04-02 19:55:00
3:15 PM,32.0,12.2,44,30.31,10.0,NW,5.8,-,N/A,,Clear,310,2013-04-02 20:15:00
3:35 PM,32.0,12.2,44,30.31,10.0,NW,9.2,-,N/A,,Clear,310,2013-04-02 20:35:00
3:55 PM,32.0,12.2,44,30.31,10.0,NW,9.2,-,N/A,,Clear,310,2013-04-02 20:55:00
4:15 PM,32.0,14.0,48,30.31,10.0,NW,8.1,-,N/A,,Clear,320,2013-04-02 21:15:00
4:35 PM,32.0,12.2,44,30.31,10.0,WNW,3.5,-,N/A,,Clear,300,2013-04-02 21:35:00
4:55 PM,32.0,14.0,48,30.31,10.0,NW,6.9,-,N/A,,Clear,310,2013-04-02 21:55:00
5:15 PM,32.0,14.0,48,30.31,10.0,NW,6.9,-,N/A,,Clear,310,2013-04-02 22:15:00
5:35 PM,32.0,14.0,48,30.31,10.0,NNW,4.6,-,N/A,,Clear,330,2013-04-02 22:35:00
5:55 PM,32.0,12.2,44,30.31,10.0,NNW,5.8,-,N/A,,Clear,340,2013-04-02 22:55:00
6:15 PM,32.0,12.2,44,30.31,10.0,NNW,3.5,-,N/A,,Clear,340,2013-04-02 23:15:00
6:35 PM,32.0,14.0,48,30.31,10.0,NW,6.9,-,N/A,,Clear,310,2013-04-02 23:35:00
6:55 PM,30.2,15.8,55,30.32,10.0,West,5.8,-,N/A,,Clear,280,2013-04-02 23:55:00
7:15 PM,30.2,15.8,55,30.31,10.0,WNW,5.8,-,N/A,,Clear,290,2013-04-03 00:15:00
7:35 PM,28.4,15.8,59,30.31,10.0,West,4.6,-,N/A,,Clear,280,2013-04-03 00:35:00
7:55 PM,28.4,14.0,55,30.31,10.0,WNW,4.6,-,N/A,,Clear,300,2013-04-03 00:55:00
8:15 PM,28.4,15.8,59,30.31,10.0,WSW,4.6,-,N/A,,Clear,250,2013-04-03 01:15:00
8:35 PM,26.6,17.6,69,30.32,10.0,West,4.6,-,N/A,,Clear,260,2013-04-03 01:35:00
8:55 PM,24.8,17.6,74,30.33,10.0,West,3.5,-,N/A,,Clear,280,2013-04-03 01:55:00
9:15 PM,24.8,17.6,74,30.33,10.0,Calm,Calm,-,N/A,,Clear,0,2013-04-03 02:15:00
9:35 PM,23.0,17.6,80,30.33,10.0,WNW,3.5,-,N/A,,Clear,290,2013-04-03 02:35:00
9:55 PM,24.8,17.6,74,30.33,10.0,NW,3.5,-,N/A,,Clear,320,2013-04-03 02:55:00
10:15 PM,23.0,17.6,80,30.33,10.0,Calm,Calm,-,N/A,,Clear,0,2013-04-03 03:15:00
10:35 PM,21.2,17.6,86,30.33,10.0,WSW,3.5,-,N/A,,Clear,240,2013-04-03 03:35:00
10:55 PM,23.0,17.6,80,30.33,10.0,Calm,Calm,-,N/A,,Clear,0,2013-04-03 03:55:00
11:15 PM,21.2,17.6,86,30.33,10.0,West,3.5,-,N/A,,Clear,280,2013-04-03 04:15:00
11:35 PM,21.2,17.6,86,30.33,10.0,Calm,Calm,-,N/A,,Clear,0,2013-04-03 04:35:00
11:55 PM,19.4,17.6,93,30.34,10.0,WSW,4.6,-,N/A,,Clear,250,2013-04-03 04:55:00